• Join FlightAware (Why Join?)
  • Login
  • US Flag 
06:56PM EDT


 

Airport Tracker/Info


-or-


 

Live Flight TrackerFlight Track Log ✈ SKW5619 ✈ 04-Jun-2013 ✈ KFSD - KDEN

Flight Track Log - Related Links

Times and Time Zones

All times are in EDT time to prevent confusion due to time zone crossing. See the SKW5619 flight status page for this flight to view local times or setup timezone preferences in your user account.

Time Position Orientation Groundspeed Altitude Reporting Facility
EDT Latitude Longitude Course Direction KTS MPH feet Rate Location/Type
05:08PM 43.5569 -96.7742 233° Southwest 153 176 2,700  Level Minneapolis Center
05:09PM 43.5214 -96.8364 232° Southwest 198 228 4,700 2,340 Climbing Minneapolis Center
05:10PM 43.3864 -97.0759 231° Southwest  Level FlightAware Approximate
05:10PM 43.4650 -96.9339 231° Southwest 248 285 7,600  Level Minneapolis Center
05:11PM 43.3211 -97.1863 229° Southwest  Level FlightAware Approximate
05:11PM 43.4181 -97.0211 233° Southwest 271 312 10,800  Level Minneapolis Center
05:12PM 43.2536 -97.2942 229° Southwest  Level FlightAware Approximate
05:12PM 43.3689 -97.1111 233° Southwest 287 330 12,500  Level Minneapolis Center
05:13PM 43.1984 -97.4133 233° Southwest  Level FlightAware Approximate
05:13PM 43.3144 -97.2103 233° Southwest 314 361 15,400  Level Minneapolis Center
05:14PM 43.2628 -97.3042 233° Southwest 310 357 18,100 2,280 Climbing Minneapolis Center
05:15PM 43.2089 -97.3986 232° Southwest 314 361 20,200 1,920 Climbing Minneapolis Center
05:16PM 43.1428 -97.5183 233° Southwest 328 377 22,100 1,740 Climbing Minneapolis Center
05:17PM 43.0836 -97.6233 232° Southwest 346 398 23,900 1,620 Climbing Minneapolis Center
05:18PM 43.0239 -97.7278 232° Southwest 349 402 25,500 1,380 Climbing Minneapolis Center
05:19PM 42.9633 -97.8347 232° Southwest 355 409 26,800 1,200 Climbing Minneapolis Center
05:20PM 42.9008 -97.9422 232° Southwest 361 415 28,100 1,200 Climbing Minneapolis Center
05:21PM 42.8375 -98.0553 233° Southwest 370 426 29,300 1,260 Climbing Minneapolis Center
05:22PM 42.7592 -98.1897 232° Southwest 377 434 30,800 1,380 Climbing Minneapolis Center
05:24PM 42.6989 -98.2944 232° Southwest 376 433 32,200 1,380 Climbing Minneapolis Center
05:25PM 42.6372 -98.4044 233° Southwest 369 425 33,700 840 Climbing Minneapolis Center
05:26PM 42.5733 -98.5119 231° Southwest 368 423 34,000 120 Climbing Minneapolis Center
05:27PM 42.4919 -98.6508 232° Southwest 389 448 34,000 540 Level Minneapolis Center
05:28PM 42.4325 -98.7733 237° Southwest 390 449 35,200 960 Climbing Minneapolis Center
05:29PM 42.3783 -98.8969 239° Southwest 384 442 36,000 360 Climbing Minneapolis Center
05:30PM 42.3244 -99.0169 239° Southwest 377 434 36,000  Level Minneapolis Center
05:31PM 42.2700 -99.1367 238° Southwest 376 433 36,000  Level Minneapolis Center
05:31PM 42.2264 -99.2306 238° Southwest 373 429 36,000  Level Denver Center
05:33PM 42.1728 -99.3494 239° Southwest 373 429 36,000  Level Denver Center
05:34PM 42.1250 -99.4703 242° Southwest 368 423 36,000  Level Denver Center
05:34PM 42.1078 -99.5197 245° Southwest 368 423 36,000  Level Minneapolis Center
05:35PM 42.0642 -99.6408 244° Southwest 363 418 36,000  Level Minneapolis Center
05:36PM 42.0264 -99.7439 244° Southwest 367 422 36,000  Level Denver Center
05:37PM 41.9833 -99.8589 243° Southwest 362 417 36,000  Level Denver Center
05:38PM 41.9336 -99.9956 244° Southwest 364 419 36,000  Level Denver Center
05:39PM 41.8914 -100.1114 244° Southwest 363 418 36,000  Level Denver Center
05:40PM 41.8472 -100.2286 243° Southwest 368 423 36,000  Level Denver Center
05:41PM 41.7964 -100.3672 244° Southwest 371 427 36,000  Level Denver Center
05:42PM 41.7525 -100.4853 244° Southwest 372 428 36,000  Level Denver Center
05:43PM 41.7022 -100.6203 244° Southwest 366 421 36,000  Level Denver Center
05:44PM 41.6586 -100.7372 244° Southwest 367 422 36,000  Level Denver Center
05:45PM 41.6072 -100.8731 243° Southwest 367 422 36,000  Level Denver Center
05:46PM 41.5631 -100.9897 243° Southwest 369 425 36,000  Level Denver Center
05:47PM 41.5114 -101.1264 243° Southwest 370 426 36,000  Level Denver Center
05:48PM 41.4667 -101.2422 243° Southwest 370 426 36,000  Level Denver Center
05:49PM 41.4147 -101.3786 243° Southwest 371 427 36,000  Level Denver Center
05:50PM 41.3692 -101.4953 243° Southwest 373 429 36,000  Level Denver Center
05:51PM 41.3167 -101.6314 243° Southwest 372 428 36,000  Level Denver Center
05:52PM 41.2706 -101.7475 242° Southwest 371 427 36,000  Level Denver Center
05:53PM 41.2175 -101.8844 243° Southwest 374 430 36,000  Level Denver Center
05:54PM 41.1728 -101.9983 242° Southwest 368 423 36,000  Level Denver Center
05:55PM 41.1192 -102.1333 242° Southwest 371 427 36,000  Level Denver Center
05:56PM 41.0736 -102.2478 242° Southwest 368 423 36,000  Level Denver Center
05:57PM 41.0206 -102.3828 243° Southwest 370 426 36,000  Level Denver Center
05:58PM 40.9753 -102.4969 242° Southwest 368 423 36,000  Level Denver Center
05:59PM 40.9197 -102.6314 241° Southwest 372 428 36,000  Level Denver Center
06:00PM 40.8747 -102.7458 243° Southwest 369 425 36,000  Level Denver Center
06:01PM 40.8200 -102.8828 242° Southwest 377 434 36,000 -300 Level Denver Center
06:03PM 40.7669 -103.0119 242° Southwest 379 436 35,400 -1,560 Descending Denver Center
06:04PM 40.7139 -103.1394 241° Southwest 395 455 32,800 -2,520 Descending Denver Center
06:05PM 40.6625 -103.2686 242° Southwest 401 461 30,300 -2,460 Descending Denver Center
06:06PM 40.6094 -103.3978 242° Southwest 403 464 27,800 -2,460 Descending Denver Center
06:07PM 40.5572 -103.5236 241° Southwest 394 453 25,300 -2,460 Descending Denver Center
06:08PM 40.5061 -103.6475 242° Southwest 387 445 22,800 -2,520 Descending Denver Center
06:09PM 40.4503 -103.7806 241° Southwest 374 430 20,200 -2,040 Descending Denver Center
06:10PM 40.4014 -103.8958 241° Southwest 332 382 18,600 -1,440 Descending Denver Center
06:11PM 40.3625 -103.9953 243° Southwest 310 357 17,300 -1,200 Descending Denver Center
06:12PM 40.3556 -104.1044 265° West 285 328 16,200 -1,020 Descending Denver Center
06:13PM 40.3553 -104.2000 270° West 269 310 15,300 -840 Descending Denver Center
06:14PM 40.3531 -104.2961 268° West 248 285 14,600 -780 Descending Denver Center
06:15PM 40.3353 -104.3806 255° West 246 283 13,800 -960 Descending Denver Center
06:16PM 40.3028 -104.4656 243° Southwest 245 282 12,700 -1,020 Descending Denver Center
06:17PM 40.2500 -104.5172 217° Southwest 244 281 11,700 -1,020 Descending Denver Center
06:18PM 40.1881 -104.5572 206° Southwest 247 284 10,700 -1,020 Descending Denver Center
06:19PM 40.1244 -104.6022 208° Southwest 243 280 9,600 -1,020 Descending Denver Center
06:20PM 40.0678 -104.6472 211° Southwest 240 276 8,600 -1,020 Descending Denver Center